Powrót do katalogu

FENG YUN 3H

AktywnyPogodaSSO
NORAD 65815·PAYLOAD·🇨🇳 China
Ta nazwa satelity nie została jeszcze potwierdzona przez oficjalne źródła.

Wystrzelony Sep 26, 2025 z Jiuquan Satellite Launch Center

Loading…

Następne Przeloty (najbliższe 24 godziny)

TLE

ŚwieżeSource: Space-Track

Epoka: Sep 14, 2026, 14:28 UTC

1 65815U 25219A   26257.60321440  .00000028  00000-0  33535-4 0  9999
2 65815  98.6815 196.6490 0001320 101.8203 258.3122 14.19932724 50077

Śledź FENG YUN 3H w czasie rzeczywistym z AllMySat

Download on the App Store